IK0TIX Weather Reports


Display with metric or nautical units.
time (UTC)temp
F
wind
direction
speed
MPH
gust
MPH
rain 1hr
in
rain 24hr
in
rain mn
in
humidity
%
barometer
mb
20260508033439 64 38 1.0 5.0 0.00 0.00 0.00 69 1009.8
20260508032933 64 38 1.0 8.0 0.00 0.00 0.00 68 1009.7
20260508032430 64 39 3.0 9.0 0.00 0.00 0.00 68 1009.7
20260508032012 64 35 5.0 10.0 0.00 0.00 0.00 68 1009.6
20260508031447 64 1 4.0 9.0 0.00 0.00 0.00 68 1009.6
20260508030939 64 26 5.0 10.0 0.00 0.00 0.00 68 1009.6
20260508030436 64 11 4.0 9.0 0.00 0.00 0.00 68 1009.6
20260508025950 64 23 4.0 8.0 0.00 0.00 0.00 68 1009.6
20260508025446 64 15 3.0 8.0 0.00 0.00 0.00 68 1009.6
20260508024942 64 30 4.0 8.0 0.00 0.00 0.00 69 1009.5
20260508024439 64 36 3.0 9.0 0.00 0.00 0.00 68 1009.6
20260508023932 64 20 3.0 9.0 0.00 0.00 0.00 68 1009.5
20260508023430 64 15 3.0 9.0 0.00 0.00 0.00 68 1009.6
20260508022943 64 40 4.0 9.0 0.00 0.00 0.00 68 1009.6
20260508022441 64 30 3.0 6.0 0.00 0.00 0.00 68 1009.7
20260508021930 64 20 3.0 8.0 0.00 0.00 0.00 68 1009.7
20260508021454 64 38 4.0 8.0 0.00 0.00 0.00 68 1009.7
20260508020953 64 16 3.0 8.0 0.00 0.00 0.00 68 1009.6
20260508020450 64 38 2.0 9.0 0.00 0.00 0.00 68 1009.7
20260508015930 64 40 3.0 9.0 0.00 0.16 0.00 68 1009.6
20260508015428 64 30 3.0 10.0 0.00 0.16 0.00 68 1009.7
20260508014941 64 31 3.0 10.0 0.00 0.16 0.00 68 1009.7
20260508014437 64 37 3.0 10.0 0.00 0.16 0.00 68 1009.7
20260508013948 64 38 3.0 10.0 0.00 0.16 0.00 68 1009.8
20260508013445 64 46 4.0 9.0 0.00 0.16 0.00 68 1009.8
20260508012936 64 36 4.0 9.0 0.00 0.16 0.00 68 1009.9
20260508012502 64 38 3.0 9.0 0.00 0.16 0.00 68 1009.9
20260508011931 64 36 3.0 8.0 0.00 0.16 0.00 68 1009.9
20260508011429 64 34 2.0 6.0 0.00 0.16 0.00 68 1009.9
20260508010945 64 34 1.0 6.0 0.00 0.16 0.00 68 1010.0
20260508010440 64 34 2.0 5.0 0.00 0.16 0.00 68 1010.0
20260508005931 64 34 2.0 6.0 0.00 0.20 0.00 68 1010.1
20260508005427 64 34 1.0 6.0 0.00 0.20 0.00 68 1010.1
20260508004939 64 31 2.0 6.0 0.00 0.20 0.00 67 1010.1
20260508004437 64 31 2.0 6.0 0.00 0.20 0.00 67 1010.1
20260508003944 64 36 2.0 6.0 0.00 0.20 0.00 67 1010.1
20260508003440 65 38 3.0 5.0 0.00 0.20 0.00 67 1010.2
20260508002933 65 38 1.0 4.0 0.00 0.20 0.00 67 1010.2
20260508002455 65 38 1.0 5.0 0.00 0.20 0.00 67 1010.3
20260508001938 65 38 2.0 5.0 0.00 0.20 0.00 67 1010.3
20260508001435 65 37 2.0 6.0 0.00 0.20 0.00 68 1010.4
20260508000945 65 36 1.0 8.0 0.00 0.20 0.00 67 1010.4
20260508000442 65 38 3.0 8.0 0.00 0.20 0.00 67 1010.4
20260507235935 65 36 3.0 6.0 0.00 0.28 0.00 68 1010.5
20260507235501 65 34 2.0 5.0 0.00 0.28 0.00 69 1010.5
20260507234929 65 34 1.0 6.0 0.00 0.28 0.00 69 1010.6
20260507234439 65 34 3.0 6.0 0.00 0.28 0.00 69 1010.6
20260507233944 65 35 2.0 5.0 0.00 0.28 0.00 69 1010.7
20260507233442 65 34 3.0 5.0 0.00 0.28 0.00 69 1010.8
20260507232933 65 31 1.0 6.0 0.00 0.28 0.00 70 1010.7
20260507232436 65 32 1.0 6.0 0.00 0.28 0.00 70 1010.8
20260507231948 65 31 1.0 6.0 0.00 0.28 0.00 70 1010.9
20260507231446 65 32 3.0 6.0 0.00 0.28 0.00 70 1010.9
20260507230936 65 32 1.0 6.0 0.00 0.28 0.00 70 1011.0
20260507230435 65 33 3.0 9.0 0.00 0.28 0.00 70 1011.1
20260507225948 65 41 4.0 9.0 0.00 0.28 0.00 71 1011.1
20260507225439 66 39 2.0 6.0 0.00 0.28 0.00 72 1011.2
20260507224937 66 30 2.0 4.0 0.00 0.28 0.00 73 1011.3
20260507224502 66 30 1.0 3.0 0.00 0.28 0.00 73 1011.3
20260507223949 66 30 1.0 6.0 0.00 0.28 0.00 73 1011.4
20260507223455 66 30 0.0 6.0 0.00 0.28 0.00 73 1011.3
20260507222946 66 30 2.0 6.0 0.00 0.28 0.00 74 1011.3
20260507222435 66 35 2.0 6.0 0.00 0.28 0.00 74 1011.3
20260507221943 66 336 2.0 4.0 0.00 0.28 0.00 76 1011.3
20260507221439 66 294 2.0 3.0 0.00 0.28 0.00 77 1011.3
20260507220931 66 290 0.0 2.0 0.00 0.28 0.00 78 1011.4
20260507220427 66 290 0.0 0.0 0.00 0.28 0.00 79 1011.4
20260507215939 66 290 0.0 0.0 0.00 0.39 0.06 79 1011.6
20260507215436 66 290 0.0 0.0 0.00 0.39 0.06 79 1011.6
20260507214951 66 290 0.0 0.0 0.00 0.39 0.06 79 1011.6
20260507214427 66 290 0.0 2.0 0.00 0.39 0.06 79 1011.6
20260507213935 66 290 0.0 2.0 0.00 0.39 0.06 79 1011.6
20260507213459 66 290 0.0 1.0 0.00 0.39 0.06 79 1011.6
20260507212947 66 290 0.0 1.0 0.00 0.39 0.06 80 1011.7
20260507212445 67 290 0.0 1.0 0.00 0.39 0.06 79 1011.8
20260507212004 67 290 0.0 1.0 0.00 0.39 0.06 79 1011.9
20260507211525 67 290 0.0 1.0 0.00 0.39 0.06 78 1012.0
20260507211442 67 290 0.0 1.0 0.00 0.39 0.06 78 1012.0
20260507210928 67 290 0.0 0.0 0.00 0.39 0.06 78 1011.9
20260507210450 67 290 0.0 1.0 0.00 0.39 0.06 78 1011.9
20260507205944 67 290 0.0 1.0 0.00 0.43 0.06 78 1011.9
20260507205441 67 290 0.0 0.0 0.00 0.43 0.06 77 1011.9
20260507204954 67 290 0.0 0.0 0.00 0.43 0.06 77 1011.9
20260507204451 67 290 0.0 0.0 0.00 0.43 0.06 77 1011.9
20260507203944 67 290 0.0 0.0 0.00 0.43 0.06 77 1012.0
20260507203441 68 290 0.0 0.0 0.00 0.43 0.06 77 1012.0
20260507202932 68 290 0.0 0.0 0.00 0.43 0.06 77 1012.0
20260507202431 68 290 0.0 0.0 0.00 0.43 0.06 77 1012.0
20260507202000 68 290 0.0 0.0 0.00 0.43 0.06 77 1012.1
20260507201442 68 290 0.0 0.0 0.00 0.43 0.06 77 1012.1
20260507200929 68 290 0.0 0.0 0.00 0.43 0.06 76 1012.1
20260507200453 68 290 0.0 0.0 0.00 0.43 0.06 76 1012.1
20260507195931 68 290 0.0 0.0 0.00 0.47 0.06 76 1012.1
20260507195432 68 290 0.0 0.0 0.00 0.47 0.06 76 1012.0
20260507194941 68 290 0.0 1.0 0.00 0.47 0.06 76 1012.0
20260507194453 68 290 0.0 1.0 0.00 0.47 0.06 76 1012.0
20260507193945 68 290 0.0 1.0 0.00 0.47 0.06 77 1012.0
20260507193444 68 290 0.0 0.0 0.00 0.47 0.06 76 1012.0
20260507193025 67 290 0.0 1.0 0.00 0.47 0.06 76 1012.0
20260507192943 67 290 0.0 1.0 0.00 0.47 0.06 76 1012.0
20260507192439 68 290 0.0 1.0 0.00 0.47 0.06 76 1012.0
20260507191959 68 290 0.0 1.0 0.00 0.47 0.06 76 1011.9
20260507191501 68 290 0.0 1.0 0.00 0.47 0.06 76 1011.9
20260507190952 67 290 0.0 2.0 0.00 0.47 0.06 76 1012.0
20260507190428 67 290 1.0 3.0 0.00 0.47 0.06 76 1012.0
20260507185938 67 290 0.0 3.0 0.00 0.47 0.06 75 1011.9
20260507185519 67 290 1.0 5.0 0.00 0.47 0.06 75 1011.9
20260507184943 67 290 1.0 5.0 0.00 0.47 0.06 74 1011.9
20260507184431 68 290 2.0 7.0 0.00 0.47 0.06 73 1011.9
20260507183940 68 292 3.0 7.0 0.00 0.47 0.06 72 1011.9
20260507183507 68 296 4.0 11.0 0.00 0.47 0.06 71 1011.9
20260507182941 68 302 5.0 11.0 0.00 0.47 0.06 70 1011.9
20260507182444 68 310 3.0 9.0 0.00 0.47 0.06 70 1011.9
20260507181948 69 304 2.0 5.0 0.00 0.47 0.06 70 1011.9
20260507181445 69 299 2.0 5.0 0.00 0.47 0.06 70 1011.9
20260507180952 69 300 2.0 5.0 0.00 0.47 0.06 70 1012.0
20260507180449 69 300 2.0 5.0 0.00 0.47 0.06 70 1012.0
20260507175946 70 300 2.0 4.0 0.00 0.47 0.06 70 1012.0
20260507175436 70 300 1.0 4.0 0.00 0.47 0.06 70 1012.0
20260507174942 70 302 1.0 7.0 0.00 0.47 0.06 69 1012.0
20260507174439 70 302 3.0 7.0 0.00 0.47 0.06 69 1012.0
20260507173930 70 303 2.0 10.0 0.00 0.47 0.06 68 1012.0
20260507173455 70 303 5.0 12.0 0.00 0.47 0.06 67 1012.0
20260507173004 71 292 5.0 12.0 0.00 0.47 0.06 67 1012.0
20260507172503 71 290 4.0 9.0 0.00 0.47 0.06 66 1012.0
20260507171933 72 290 4.0 8.0 0.00 0.47 0.06 65 1012.0
20260507171429 72 269 4.0 8.0 0.00 0.47 0.06 65 1012.0
20260507170940 73 290 3.0 9.0 0.00 0.47 0.06 64 1011.9
20260507170439 73 270 3.0 11.0 0.00 0.47 0.06 63 1012.0
20260507165930 74 266 3.0 11.0 0.00 0.47 0.06 63 1012.0
20260507165455 74 269 4.0 10.0 0.00 0.47 0.06 63 1012.0
20260507164936 74 263 5.0 10.0 0.00 0.47 0.06 62 1011.9
20260507164429 74 276 4.0 10.0 0.00 0.47 0.06 61 1011.9
20260507163942 75 259 4.0 10.0 0.00 0.47 0.06 61 1011.9
20260507163438 75 248 3.0 10.0 0.00 0.47 0.06 61 1011.8
20260507162946 75 261 4.0 11.0 0.00 0.47 0.06 61 1011.9
20260507162444 75 239 4.0 11.0 0.00 0.47 0.06 61 1011.8
20260507161931 75 242 3.0 10.0 0.00 0.47 0.06 61 1011.9
20260507161428 76 244 5.0 10.0 0.00 0.47 0.06 60 1011.9
20260507160951 76 251 3.0 10.0 0.00 0.47 0.06 60 1011.8
20260507160428 76 261 6.0 11.0 0.00 0.47 0.06 60 1011.9
20260507155958 76 233 4.0 11.0 0.00 0.47 0.06 59 1011.8
20260507155502 77 238 6.0 12.0 0.00 0.47 0.06 59 1011.7
20260507154953 78 260 6.0 15.0 0.00 0.47 0.06 58 1011.8
20260507154429 78 237 8.0 14.0 0.00 0.47 0.06 57 1011.7
20260507153941 79 233 5.0 14.0 0.00 0.47 0.06 57 1011.7
20260507153436 79 258 8.0 14.0 0.00 0.47 0.06 56 1011.8
20260507152947 79 263 5.0 15.0 0.00 0.47 0.06 56 1011.7
20260507152445 79 265 8.0 15.0 0.00 0.47 0.06 56 1011.7
20260507151928 79 273 6.0 11.0 0.00 0.47 0.06 55 1011.7
20260507151430 79 346 1.0 8.0 0.00 0.47 0.06 46 1011.7
20260507151009 79 345 3.0 8.0 0.00 0.47 0.06 45 1011.8
20260507150451 79 344 3.0 6.0 0.00 0.47 0.06 45 1011.9
20260507145953 79 344 2.0 6.0 0.00 0.47 0.06 45 1011.9
20260507145430 79 344 2.0 6.0 0.00 0.47 0.06 46 1011.8
20260507144942 79 344 3.0 5.0 0.00 0.47 0.06 45 1011.8
20260507144437 79 344 2.0 10.0 0.00 0.47 0.06 47 1011.9
20260507143947 78 344 4.0 10.0 0.00 0.47 0.06 47 1012.0
20260507143444 78 6 4.0 10.0 0.00 0.47 0.06 47 1012.0
20260507142933 79 15 5.0 10.0 0.00 0.47 0.06 46 1011.9
20260507142459 79 328 4.0 10.0 0.00 0.47 0.06 47 1011.9
20260507141950 79 328 2.0 6.0 0.00 0.47 0.06 48 1011.9
20260507141446 79 328 2.0 6.0 0.00 0.47 0.06 47 1012.1
20260507141025 79 329 4.0 6.0 0.00 0.47 0.06 46 1012.2
20260507140942 79 329 4.0 6.0 0.00 0.47 0.06 46 1012.2
20260507140435 79 327 2.0 9.0 0.00 0.47 0.06 47 1012.3
20260507140002 79 327 4.0 9.0 0.00 0.47 0.06 47 1012.4
20260507135439 79 328 4.0 9.0 0.00 0.47 0.06 47 1012.5
20260507134931 79 328 4.0 9.0 0.00 0.47 0.06 46 1012.5
20260507134457 78 328 0.0 8.0 0.00 0.47 0.06 48 1012.6
20260507133947 78 328 3.0 8.0 0.00 0.47 0.06 48 1012.8
20260507133445 77 329 1.0 11.0 0.00 0.47 0.06 49 1012.9
20260507132935 77 329 2.0 11.0 0.00 0.47 0.06 49 1013.0
20260507132434 77 329 5.0 11.0 0.00 0.47 0.06 48 1013.1
20260507131944 77 332 5.0 11.0 0.00 0.47 0.06 49 1013.0
20260507131440 77 1 2.0 8.0 0.00 0.47 0.06 49 1013.1
20260507130927 77 6 4.0 8.0 0.00 0.47 0.06 49 1013.2
20260507130456 78 6 3.0 8.0 0.00 0.47 0.06 49 1013.3
20260507125955 78 6 3.0 8.0 0.00 0.47 0.06 50 1013.3
20260507125453 77 11 3.0 8.0 0.00 0.47 0.06 52 1013.3
20260507124952 77 32 0.0 5.0 0.00 0.47 0.06 52 1013.3
20260507124456 77 32 1.0 5.0 0.00 0.47 0.06 52 1013.4
20260507123950 76 38 0.0 4.0 0.00 0.47 0.06 51 1013.3
20260507123445 76 38 1.0 5.0 0.00 0.47 0.06 52 1013.4
20260507122935 76 38 2.0 6.0 0.00 0.47 0.06 48 1013.4
20260507122431 77 39 3.0 6.0 0.00 0.47 0.06 49 1013.5
20260507121942 76 52 1.0 4.0 0.00 0.47 0.06 51 1013.6
20260507121430 76 52 1.0 4.0 0.00 0.47 0.06 52 1013.6
20260507120953 75 56 1.0 4.0 0.00 0.47 0.06 52 1013.7
20260507120450 76 57 2.0 6.0 0.00 0.47 0.06 51 1013.7
20260507115936 76 62 3.0 6.0 0.00 0.47 0.06 52 1013.7
20260507115502 76 11 1.0 5.0 0.00 0.47 0.06 54 1013.7
20260507114930 76 11 2.0 5.0 0.00 0.47 0.06 54 1013.6
20260507114455 75 19 0.0 6.0 0.00 0.47 0.06 56 1013.7
20260507113939 75 19 2.0 8.0 0.00 0.47 0.06 55 1013.8
20260507113505 75 50 2.0 6.0 0.00 0.47 0.06 56 1013.8
20260507112934 75 32 1.0 2.0 0.00 0.47 0.06 57 1013.8
20260507112432 74 32 1.0 2.0 0.00 0.47 0.06 57 1013.8
20260507111944 74 32 0.0 5.0 0.00 0.47 0.06 57 1014.0
20260507111439 74 32 1.0 4.0 0.00 0.47 0.06 58 1014.1
20260507110928 73 21 0.0 6.0 0.00 0.47 0.06 57 1014.1
20260507110455 74 21 2.0 7.0 0.00 0.47 0.06 59 1014.2
20260507105938 73 49 2.0 8.0 0.00 0.47 0.06 59 1014.2
20260507105457 73 11 1.0 8.0 0.00 0.47 0.06 59 1014.2
20260507104948 74 19 2.0 8.0 0.00 0.47 0.06 59 1014.3
20260507104446 73 337 0.0 5.0 0.00 0.47 0.06 59 1014.3
20260507103938 73 337 1.0 5.0 0.00 0.47 0.06 59 1014.4
20260507103427 73 33 2.0 7.0 0.00 0.47 0.06 59 1014.4
20260507102934 73 91 2.0 7.0 0.00 0.47 0.06 60 1014.4
20260507102451 72 32 2.0 7.0 0.00 0.47 0.06 60 1014.5
20260507102001 72 64 3.0 8.0 0.00 0.47 0.06 61 1014.5
20260507101436 72 89 3.0 8.0 0.00 0.47 0.06 62 1014.6
20260507100950 71 1 0.0 4.0 0.00 0.47 0.06 62 1014.7
20260507100443 71 1 1.0 5.0 0.00 0.47 0.06 62 1014.7
20260507095937 71 1 2.0 4.0 0.00 0.47 0.06 62 1014.7
20260507095435 71 353 1.0 5.0 0.00 0.47 0.06 62 1014.7
20260507094942 71 352 3.0 6.0 0.00 0.47 0.06 62 1014.7
20260507094441 71 1 2.0 5.0 0.00 0.47 0.06 64 1014.8
20260507093949 70 19 2.0 6.0 0.00 0.47 0.06 65 1014.9
20260507093444 70 20 1.0 6.0 0.00 0.47 0.06 65 1014.9
20260507092937 70 28 2.0 5.0 0.00 0.47 0.06 65 1014.9
20260507092434 70 32 2.0 4.0 0.00 0.47 0.06 65 1014.9
20260507091941 70 32 1.0 5.0 0.00 0.47 0.06 66 1014.7
20260507091438 70 33 1.0 6.0 0.00 0.47 0.06 65 1014.7
20260507090926 70 34 0.0 5.0 0.00 0.47 0.06 66 1014.7
20260507090448 69 34 0.0 6.0 0.00 0.47 0.06 67 1014.7
20260507085942 69 33 3.0 6.0 0.00 0.47 0.06 66 1014.6
20260507085439 69 34 1.0 8.0 0.00 0.47 0.06 68 1014.6
20260507084948 69 31 2.0 8.0 0.00 0.47 0.06 67 1014.6
20260507084447 69 19 3.0 6.0 0.00 0.47 0.06 66 1014.7
20260507083939 69 56 1.0 5.0 0.00 0.47 0.06 68 1014.8
20260507083503 69 56 2.0 6.0 0.00 0.47 0.06 68 1014.7
20260507083000 68 57 1.0 6.0 0.00 0.47 0.06 70 1014.8
20260507082433 68 31 1.0 5.0 0.00 0.47 0.06 70 1014.8
20260507081945 68 29 3.0 5.0 0.00 0.47 0.06 70 1014.7
20260507081442 68 37 1.0 4.0 0.00 0.47 0.06 71 1014.8
20260507080935 68 37 1.0 5.0 0.00 0.47 0.06 71 1014.8
20260507080433 68 37 1.0 5.0 0.00 0.47 0.06 71 1014.9
20260507075945 68 38 1.0 3.0 0.00 0.47 0.06 71 1015.0
20260507075444 68 38 0.0 1.0 0.00 0.47 0.06 72 1015.0
20260507074933 69 42 0.0 0.0 0.00 0.47 0.06 73 1014.9
20260507074457 68 43 0.0 0.0 0.00 0.47 0.06 75 1014.9
20260507073942 68 43 0.0 0.0 0.00 0.47 0.06 75 1014.9
20260507073438 67 43 0.0 0.0 0.00 0.47 0.06 76 1014.9
20260507072951 67 43 0.0 0.0 0.00 0.47 0.06 77 1014.9
20260507072443 67 52 0.0 0.0 0.00 0.47 0.06 77 1014.9
20260507071934 66 52 0.0 0.0 0.00 0.47 0.06 79 1014.9
20260507071430 66 52 0.0 0.0 0.00 0.47 0.06 80 1014.9
20260507070941 65 52 0.0 0.0 0.00 0.47 0.06 81 1015.1
20260507070435 65 52 0.0 0.0 0.00 0.47 0.06 81 1015.1
20260507065955 64 52 0.0 0.0 0.00 0.47 0.06 82 1015.1
20260507065441 64 52 0.0 0.0 0.00 0.47 0.06 82 1015.1
20260507064931 64 52 0.0 0.0 0.00 0.47 0.06 83 1015.1
20260507064427 63 52 0.0 3.0 0.00 0.47 0.06 83 1015.0
20260507063939 63 52 1.0 3.0 0.00 0.47 0.06 83 1015.0
20260507063436 63 52 0.0 3.0 0.00 0.47 0.06 84 1014.9
20260507062949 62 52 1.0 3.0 0.00 0.47 0.06 84 1014.9
20260507062445 62 53 1.0 3.0 0.00 0.47 0.06 85 1014.9
20260507061936 62 53 0.0 0.0 0.00 0.47 0.06 86 1014.7
20260507061433 61 53 0.0 4.0 0.00 0.47 0.06 86 1014.7
20260507060926 61 53 1.0 4.0 0.00 0.47 0.06 86 1014.7
20260507060446 61 54 2.0 4.0 0.00 0.47 0.06 86 1014.7
20260507055956 61 61 0.0 4.0 0.00 0.51 0.06 87 1014.6
20260507055440 61 62 2.0 4.0 0.00 0.51 0.06 87 1014.6
20260507054934 61 68 1.0 3.0 0.00 0.51 0.06 87 1014.6
20260507054432 60 69 1.0 2.0 0.00 0.51 0.06 88 1014.6
20260507053943 60 69 0.0 3.0 0.00 0.51 0.06 89 1014.7
20260507053441 60 69 0.0 3.0 0.00 0.51 0.06 90 1014.7
20260507052944 60 69 1.0 3.0 0.00 0.51 0.06 90 1014.7
20260507052441 59 69 1.0 4.0 0.00 0.51 0.06 90 1014.6
20260507051949 59 69 1.0 4.0 0.00 0.51 0.06 90 1014.5
20260507051442 59 69 1.0 5.0 0.00 0.51 0.06 90 1014.6
20260507050935 59 69 2.0 5.0 0.00 0.51 0.06 90 1014.6
20260507050431 58 69 3.0 5.0 0.00 0.51 0.06 90 1014.6
20260507045946 58 69 2.0 4.0 0.00 0.55 0.06 90 1014.5
20260507045443 58 69 2.0 4.0 0.00 0.55 0.06 90 1014.5
20260507044937 58 69 1.0 4.0 0.00 0.55 0.06 90 1014.5
20260507044435 58 69 1.0 5.0 0.00 0.55 0.06 90 1014.4
20260507044005 58 69 3.0 5.0 0.00 0.55 0.06 90 1014.3
20260507043441 58 69 0.0 6.0 0.00 0.55 0.06 90 1014.3
20260507042933 58 68 3.0 6.0 0.00 0.55 0.06 90 1014.4
20260507042432 58 67 3.0 6.0 0.00 0.55 0.06 90 1014.5
20260507041945 58 64 2.0 5.0 0.00 0.55 0.06 90 1014.4
20260507041443 58 64 2.0 8.0 0.00 0.55 0.06 90 1014.4
20260507040936 58 77 4.0 8.0 0.00 0.55 0.06 90 1014.3
20260507040434 58 80 2.0 6.0 0.00 0.55 0.06 90 1014.3
20260507035948 58 83 2.0 6.0 0.00 0.55 0.06 90 1014.3
20260507035441 58 84 3.0 6.0 0.00 0.55 0.06 90 1014.3
20260507034955 58 85 3.0 6.0 0.00 0.55 0.06 91 1014.3
20260507034430 58 89 3.0 6.0 0.00 0.55 0.06 91 1014.3
20260507033943 58 90 2.0 5.0 0.00 0.55 0.06 91 1014.3